QPF
0.00 0.00 0.00 0.00 0.00 0.00 0.00 0.00 0.00 0.00 0.00 0.00 0.00 0.00 0.00 0.00 0.00 0.00 0.00 0.00 0.00 0.00 0.01 0.01 0.01 0.01 0.01 0.01 0.01 0.02 0.03 0.04 0.05 0.06 0.06 0.06 0.06 0.05 0.05 0.06 0.09 0.08 0.07
0.00 0.00 0.00 0.00 0.00 0.00 0.00 0.00 0.00 0.00 0.00 0.00 0.00 0.00 0.00 0.00 0.00 0.00 0.00 0.00 0.00 0.00 0.01 0.01 0.00 0.00 0.01 0.01 0.02 0.02 0.03 0.03 0.05 0.05 0.06 0.06 0.06 0.05 0.05 0.05 0.06 0.07 0.08
0.00 0.00 0.00 0.00 0.00 0.00 0.00 0.00 0.00 0.00 0.00 0.00 0.00 0.00 0.00 0.00 0.00 0.00 0.00 0.00 0.00 0.00 0.00 0.00 0.00 0.00 0.00 0.01 0.01 0.02 0.03 0.03 0.04 0.05 0.07 0.05 0.04 0.05 0.05 0.05 0.06 0.06 0.06
0.00 0.00 0.00 0.00 0.00 0.00 0.00 0.00 0.00 0.00 0.00 0.00 0.00 0.00 0.00 0.00 0.00 0.00 0.00 0.00 0.00 0.00 0.00 0.00 0.00 0.00 0.00 0.00 0.01 0.02 0.02 0.02 0.02 0.04 0.05 0.05 0.05 0.05 0.05 0.05 0.06 0.06 0.07
0.00 0.00 0.00 0.00 0.00 0.00 0.00 0.00 0.00 0.00 0.00 0.00 0.00 0.00 0.00 0.00 0.00 0.00 0.00 0.00 0.00 0.00 0.00 0.00 0.00 0.00 0.00 0.00 0.00 0.01 0.01 0.01 0.01 0.03 0.04 0.04 0.04 0.04 0.05 0.07 0.07 0.06 0.07
0.00 0.00 0.00 0.00 0.00 0.00 0.00 0.00 0.00 0.00 0.00 0.00 0.00 0.00 0.00 0.00 0.00 0.00 0.00 0.00 0.00 0.00 0.00 0.00 0.00 0.00 0.00 0.00 0.00 0.00 0.00 0.01 0.01 0.01 0.02 0.02 0.03 0.04 0.04 0.06 0.06 0.06 0.05
0.00 0.00 0.00 0.00 0.00 0.00 0.00 0.00 0.00 0.00 0.00 0.00 0.00 0.00 0.00 0.00 0.00 0.00 0.00 0.00 0.00 0.00 0.00 0.00 0.00 0.00 0.00 0.00 0.00 0.00 0.00 0.00 0.00 0.00 0.01 0.01 0.01 0.02 0.03 0.04 0.05 0.05 0.05
0.00 0.00 0.00 0.00 0.00 0.00 0.00 0.00 0.00 0.00 0.00 0.00 0.00 0.00 0.00 0.00 0.00 0.00 0.00 0.00 0.00 0.00 0.00 0.00 0.00 0.00 0.00 0.01 0.01 0.00 0.00 0.00 0.00 0.00 0.00 0.01 0.01 0.02 0.02 0.02 0.04 0.04 0.04
0.00 0.00 0.00 0.00 0.00 0.00 0.00 0.00 0.00 0.00 0.00 0.00 0.00 0.00 0.00 0.00 0.00 0.00 0.00 0.00 0.00 0.00 0.00 0.00 0.00 0.00 0.00 0.01 0.01 0.01 0.00 0.00 0.00 0.00 0.00 0.00 0.00 0.01 0.01 0.02 0.03 0.03 0.03
0.00 0.00 0.00 0.00 0.00 0.00 0.00 0.00 0.00 0.00 0.00 0.00 0.00 0.00 0.00 0.00 0.00 0.00 0.00 0.00 0.00 0.00 0.00 0.00 0.00 0.00 0.00 0.00 0.00 0.01 0.00 0.00 0.00 0.00 0.00 0.00 0.00 0.01 0.01 0.02 0.02 0.03 0.03
0.00 0.00 0.00 0.00 0.00 0.00 0.00 0.00 0.00 0.00 0.00 0.00 0.00 0.00 0.00 0.00 0.00 0.00 0.00 0.00 0.00 0.00 0.00 0.00 0.00 0.00 0.00 0.00 0.00 0.00 0.00 0.00 0.00 0.00 0.00 0.00 0.00 0.00 0.01 0.01 0.02 0.02 0.03
0.00 0.00 0.00 0.00 0.00 0.00 0.00 0.00 0.00 0.00 0.00 0.00 0.00 0.00 0.00 0.00 0.00 0.00 0.00 0.00 0.00 0.00 0.00 0.00 0.00 0.00 0.00 0.00 0.00 0.00 0.00 0.00 0.00 0.00 0.00 0.00 0.00 0.00 0.00 0.01 0.02 0.03 0.03
0.00 0.00 0.00 0.00 0.00 0.00 0.00 0.00 0.00 0.00 0.00 0.00 0.00 0.00 0.00 0.00 0.00 0.00 0.00 0.00 0.00 0.00 0.00 0.00 0.00 0.00 0.00 0.00 0.00 0.00 0.00 0.00 0.00 0.00 0.00 0.00 0.00 0.00 0.00 0.00 0.01 0.02 0.04
0.00 0.00 0.00 0.00 0.00 0.00 0.00 0.00 0.00 0.00 0.00 0.00 0.00 0.00 0.00 0.00 0.00 0.00 0.00 0.00 0.00 0.00 0.00 0.00 0.00 0.00 0.00 0.00 0.00 0.00 0.00 0.00 0.00 0.00 0.00 0.00 0.00 0.00 0.00 0.00 0.00 0.01 0.02
0.00 0.00 0.00 0.00 0.00 0.00 0.00 0.00 0.00 0.00 0.00 0.00 0.00 0.00 0.00 0.00 0.00 0.00 0.00 0.00 0.00 0.00 0.00 0.00 0.00 0.00 0.00 0.00 0.00 0.00 0.00 0.00 0.00 0.00 0.00 0.01 0.01 0.01 0.01 0.01 0.01 0.01 0.02
0.00 0.00 0.00 0.00 0.00 0.00 0.00 0.00 0.00 0.00 0.00 0.00 0.00 0.00 0.00 0.00 0.00 0.00 0.00 0.00 0.00 0.00 0.00 0.00 0.00 0.00 0.00 0.00 0.01 0.00 0.00 0.00 0.00 0.00 0.00 0.01 0.01 0.02 0.02 0.02 0.02 0.02 0.02
0.00 0.00 0.00 0.00 0.00 0.00 0.00 0.00 0.00 0.00 0.00 0.00 0.00 0.00 0.00 0.00 0.00 0.00 0.00 0.00 0.00 0.00 0.00 0.00 0.00 0.00 0.00 0.00 0.01 0.00 0.00 0.00 0.00 0.00 0.00 0.01 0.01 0.01 0.01 0.01 0.01 0.02 0.02
0.00 0.00 0.00 0.00 0.00 0.00 0.00 0.00 0.00 0.00 0.00 0.00 0.00 0.00 0.00 0.00 0.00 0.00 0.00 0.00 0.00 0.00 0.00 0.00 0.00 0.00 0.00 0.00 0.00 0.00 0.00 0.00 0.00 0.00 0.00 0.00 0.01 0.01 0.00 0.00 0.00 0.01 0.01
0.00 0.00 0.00 0.00 0.00 0.00 0.00 0.00 0.00 0.00 0.00 0.00 0.00 0.00 0.00 0.00 0.00 0.00 0.00 0.00 0.00 0.00 0.00 0.00 0.00 0.00 0.00 0.00 0.00 0.00 0.00 0.00 0.00 0.00 0.00 0.00 0.00 0.01 0.01 0.01 0.01 0.01 0.01
0.00 0.00 0.00 0.00 0.00 0.00 0.00 0.00 0.00 0.00 0.00 0.00 0.00 0.00 0.00 0.00 0.00 0.00 0.00 0.00 0.00 0.00 0.00 0.00 0.00 0.00 0.00 0.00 0.00 0.00 0.00 0.00 0.00 0.00 0.00 0.00 0.00 0.01 0.01 0.01 0.01 0.01 0.01
0.00 0.00 0.00 0.00 0.00 0.00 0.00 0.00 0.00 0.00 0.00 0.00 0.00 0.00 0.00 0.00 0.00 0.00 0.00 0.00 0.00 0.00 0.00 0.00 0.00 0.00 0.00 0.00 0.00 0.00 0.00 0.00 0.00 0.00 0.00 0.00 0.00 0.00 0.01 0.01 0.01 0.01 0.01
0.00 0.00 0.00 0.00 0.00 0.00 0.00 0.00 0.00 0.00 0.00 0.00 0.00 0.00 0.00 0.00 0.00 0.00 0.00 0.00 0.00 0.00 0.00 0.00 0.00 0.00 0.00 0.00 0.00 0.00 0.00 0.00 0.00 0.00 0.00 0.00 0.00 0.00 0.00 0.00 0.01 0.02 0.02
0.00 0.00 0.00 0.00 0.00 0.00 0.00 0.00 0.00 0.00 0.00 0.00 0.00 0.00 0.00 0.00 0.00 0.00 0.00 0.00 0.00 0.00 0.00 0.00 0.00 0.00 0.00 0.00 0.00 0.00 0.00 0.00 0.00 0.00 0.00 0.00 0.00 0.00 0.00 0.00 0.00 0.00 0.01
0.00 0.00 0.00 0.00 0.00 0.00 0.00 0.00 0.00 0.00 0.00 0.00 0.00 0.00 0.00 0.00 0.00 0.00 0.00 0.00 0.00 0.00 0.00 0.00 0.00 0.00 0.00 0.00 0.00 0.00 0.00 0.00 0.00 0.00 0.00 0.00 0.00 0.00 0.00 0.00 0.00 0.00 0.00
0.00 0.00 0.00 0.00 0.00 0.00 0.00 0.00 0.00 0.00 0.00 0.00 0.00 0.00 0.00 0.00 0.00 0.00 0.00 0.00 0.00 0.00 0.00 0.00 0.00 0.00 0.00 0.00 0.00 0.00 0.00 0.00 0.00 0.00 0.00 0.00 0.00 0.00 0.00 0.00 0.00 0.00 0.00
0.00 0.00 0.00 0.00 0.00 0.00 0.00 0.00 0.00 0.00 0.00 0.00 0.00 0.00 0.00 0.00 0.00 0.00 0.00 0.00 0.00 0.00 0.00 0.00 0.00 0.00 0.00 0.00 0.00 0.00 0.00 0.00 0.00 0.00 0.00 0.00 0.00 0.00 0.00 0.00 0.00 0.00 0.00
MSLP
1014.49 1014.75 1014.98 1015.15 1015.27 1015.33 1015.35 1015.37 1015.42 1015.51 1015.63 1015.77 1015.90 1015.99 1016.01 1015.95 1015.80 1015.59 1015.36 1015.14 1014.96 1014.85 1014.79 1014.77 1014.77 1014.75 1014.68 1014.54 1014.32 1014.03 1013.71 1013.38 1013.07 1012.81 1012.62 1012.47 1012.37 1012.30 1012.23 1012.14 1012.05 1011.96 1011.88
1014.23 1014.53 1014.80 1014.99 1015.11 1015.17 1015.20 1015.24 1015.33 1015.47 1015.67 1015.89 1016.09 1016.22 1016.26 1016.18 1015.99 1015.72 1015.43 1015.17 1014.96 1014.84 1014.81 1014.84 1014.89 1014.92 1014.89 1014.77 1014.55 1014.24 1013.89 1013.53 1013.20 1012.93 1012.73 1012.59 1012.50 1012.43 1012.37 1012.28 1012.16 1012.03 1011.91
1013.89 1014.25 1014.56 1014.79 1014.94 1015.01 1015.06 1015.12 1015.24 1015.43 1015.68 1015.96 1016.21 1016.39 1016.45 1016.36 1016.15 1015.85 1015.52 1015.22 1014.99 1014.87 1014.84 1014.90 1014.98 1015.05 1015.04 1014.93 1014.72 1014.43 1014.08 1013.72 1013.40 1013.14 1012.95 1012.83 1012.76 1012.70 1012.62 1012.52 1012.38 1012.21 1012.03
1013.50 1013.91 1014.29 1014.58 1014.76 1014.85 1014.91 1014.99 1015.12 1015.34 1015.62 1015.94 1016.23 1016.45 1016.53 1016.46 1016.25 1015.95 1015.61 1015.29 1015.05 1014.92 1014.89 1014.95 1015.05 1015.12 1015.13 1015.04 1014.85 1014.58 1014.25 1013.93 1013.64 1013.41 1013.26 1013.16 1013.11 1013.05 1012.97 1012.84 1012.66 1012.44 1012.21
1013.08 1013.57 1014.02 1014.36 1014.59 1014.71 1014.78 1014.85 1014.98 1015.19 1015.48 1015.81 1016.12 1016.36 1016.48 1016.44 1016.27 1015.99 1015.66 1015.35 1015.11 1014.97 1014.94 1014.99 1015.07 1015.14 1015.16 1015.08 1014.92 1014.68 1014.41 1014.13 1013.90 1013.72 1013.61 1013.54 1013.49 1013.43 1013.32 1013.16 1012.94 1012.67 1012.38
1012.68 1013.24 1013.76 1014.17 1014.44 1014.59 1014.66 1014.71 1014.81 1014.99 1015.25 1015.56 1015.87 1016.12 1016.27 1016.28 1016.16 1015.93 1015.65 1015.38 1015.15 1015.02 1014.97 1015.00 1015.06 1015.11 1015.12 1015.06 1014.93 1014.74 1014.52 1014.31 1014.14 1014.01 1013.93 1013.88 1013.83 1013.75 1013.62 1013.41 1013.15 1012.83 1012.49
1012.32 1012.95 1013.54 1014.00 1014.31 1014.47 1014.53 1014.55 1014.60 1014.73 1014.93 1015.20 1015.49 1015.75 1015.93 1016.00 1015.94 1015.78 1015.57 1015.35 1015.16 1015.03 1014.97 1014.97 1015.00 1015.03 1015.03 1014.98 1014.88 1014.73 1014.58 1014.43 1014.31 1014.23 1014.17 1014.13 1014.06 1013.96 1013.78 1013.54 1013.23 1012.88 1012.52
1012.03 1012.70 1013.34 1013.84 1014.18 1014.35 1014.39 1014.38 1014.37 1014.42 1014.57 1014.78 1015.04 1015.29 1015.50 1015.61 1015.63 1015.55 1015.41 1015.25 1015.10 1014.99 1014.92 1014.90 1014.90 1014.90 1014.88 1014.84 1014.76 1014.66 1014.55 1014.46 1014.38 1014.33 1014.29 1014.23 1014.15 1014.00 1013.79 1013.52 1013.19 1012.82 1012.45
1011.80 1012.49 1013.15 1013.68 1014.03 1014.20 1014.23 1014.17 1014.12 1014.11 1014.18 1014.34 1014.56 1014.80 1015.02 1015.18 1015.26 1015.26 1015.20 1015.10 1014.99 1014.89 1014.82 1014.78 1014.75 1014.73 1014.70 1014.65 1014.59 1014.52 1014.45 1014.39 1014.34 1014.30 1014.25 1014.18 1014.06 1013.89 1013.66 1013.36 1013.03 1012.68 1012.32
1011.62 1012.30 1012.95 1013.48 1013.83 1013.99 1014.01 1013.94 1013.84 1013.79 1013.81 1013.93 1014.11 1014.33 1014.56 1014.75 1014.87 1014.93 1014.93 1014.89 1014.82 1014.74 1014.68 1014.62 1014.57 1014.53 1014.48 1014.43 1014.38 1014.32 1014.28 1014.23 1014.19 1014.15 1014.09 1013.99 1013.85 1013.65 1013.40 1013.11 1012.80 1012.48 1012.17
1011.46 1012.10 1012.72 1013.21 1013.55 1013.71 1013.73 1013.65 1013.55 1013.48 1013.48 1013.56 1013.72 1013.93 1014.15 1014.35 1014.50 1014.60 1014.64 1014.64 1014.60 1014.55 1014.49 1014.43 1014.37 1014.31 1014.26 1014.20 1014.15 1014.10 1014.05 1014.01 1013.96 1013.90 1013.82 1013.69 1013.53 1013.32 1013.08 1012.81 1012.54 1012.27 1012.02
1011.28 1011.85 1012.40 1012.86 1013.17 1013.33 1013.36 1013.31 1013.23 1013.17 1013.18 1013.26 1013.40 1013.59 1013.79 1013.99 1014.15 1014.27 1014.33 1014.36 1014.34 1014.31 1014.26 1014.21 1014.15 1014.09 1014.03 1013.97 1013.91 1013.86 1013.81 1013.75 1013.68 1013.60 1013.49 1013.35 1013.17 1012.96 1012.74 1012.50 1012.28 1012.07 1011.88
1011.05 1011.53 1012.00 1012.39 1012.67 1012.83 1012.89 1012.88 1012.86 1012.85 1012.89 1012.98 1013.12 1013.30 1013.49 1013.67 1013.81 1013.93 1014.00 1014.03 1014.04 1014.02 1013.99 1013.95 1013.90 1013.84 1013.79 1013.73 1013.67 1013.60 1013.53 1013.46 1013.37 1013.26 1013.13 1012.98 1012.80 1012.60 1012.39 1012.20 1012.02 1011.86 1011.71
1010.71 1011.09 1011.47 1011.80 1012.05 1012.22 1012.32 1012.38 1012.43 1012.49 1012.58 1012.71 1012.86 1013.03 1013.19 1013.35 1013.47 1013.56 1013.62 1013.66 1013.67 1013.67 1013.66 1013.63 1013.60 1013.56 1013.51 1013.45 1013.38 1013.31 1013.23 1013.13 1013.03 1012.90 1012.76 1012.60 1012.42 1012.24 1012.06 1011.89 1011.74 1011.61 1011.49
1010.24 1010.53 1010.82 1011.09 1011.32 1011.51 1011.66 1011.80 1011.94 1012.08 1012.24 1012.41 1012.58 1012.74 1012.88 1013.00 1013.09 1013.16 1013.20 1013.23 1013.25 1013.25 1013.26 1013.25 1013.23 1013.20 1013.16 1013.10 1013.03 1012.95 1012.86 1012.75 1012.64 1012.51 1012.37 1012.21 1012.05 1011.88 1011.71 1011.56 1011.42 1011.29 1011.16
1009.64 1009.86 1010.08 1010.31 1010.53 1010.74 1010.95 1011.17 1011.40 1011.62 1011.85 1012.06 1012.25 1012.41 1012.53 1012.61 1012.67 1012.70 1012.73 1012.74 1012.75 1012.77 1012.78 1012.78 1012.77 1012.75 1012.71 1012.65 1012.57 1012.49 1012.39 1012.29 1012.19 1012.07 1011.94 1011.81 1011.66 1011.51 1011.35 1011.19 1011.04 1010.88 1010.72
1008.94 1009.11 1009.29 1009.49 1009.71 1009.96 1010.23 1010.53 1010.83 1011.14 1011.42 1011.67 1011.88 1012.03 1012.13 1012.19 1012.21 1012.22 1012.21 1012.21 1012.21 1012.22 1012.23 1012.22 1012.21 1012.18 1012.13 1012.07 1011.99 1011.91 1011.82 1011.74 1011.65 1011.57 1011.48 1011.38 1011.26 1011.12 1010.96 1010.79 1010.60 1010.40 1010.19
1008.20 1008.34 1008.51 1008.71 1008.95 1009.24 1009.57 1009.92 1010.30 1010.66 1010.99 1011.27 1011.48 1011.63 1011.72 1011.75 1011.75 1011.73 1011.70 1011.67 1011.66 1011.64 1011.63 1011.60 1011.56 1011.51 1011.44 1011.36 1011.27 1011.20 1011.13 1011.08 1011.04 1011.01 1010.97 1010.92 1010.84 1010.72 1010.57 1010.38 1010.15 1009.89 1009.61
1007.48 1007.64 1007.82 1008.04 1008.32 1008.64 1009.02 1009.42 1009.84 1010.24 1010.59 1010.89 1011.11 1011.25 1011.33 1011.34 1011.32 1011.28 1011.23 1011.18 1011.13 1011.08 1011.02 1010.95 1010.87 1010.76 1010.66 1010.55 1010.46 1010.39 1010.35 1010.35 1010.38 1010.41 1010.45 1010.46 1010.43 1010.34 1010.19 1009.97 1009.70 1009.39 1009.06
1006.86 1007.05 1007.27 1007.54 1007.85 1008.22 1008.63 1009.07 1009.50 1009.92 1010.28 1010.58 1010.80 1010.94 1011.00 1011.01 1010.98 1010.92 1010.85 1010.77 1010.69 1010.58 1010.47 1010.33 1010.18 1010.01 1009.85 1009.71 1009.60 1009.54 1009.54 1009.60 1009.69 1009.81 1009.92 1010.01 1010.03 1009.98 1009.84 1009.61 1009.31 1008.95 1008.56
1006.38 1006.63 1006.90 1007.22 1007.58 1007.98 1008.42 1008.87 1009.32 1009.73 1010.09 1010.38 1010.59 1010.72 1010.78 1010.79 1010.76 1010.70 1010.61 1010.50 1010.36 1010.20 1010.01 1009.80 1009.56 1009.32 1009.10 1008.91 1008.79 1008.73 1008.76 1008.87 1009.04 1009.24 1009.43 1009.59 1009.67 1009.66 1009.54 1009.31 1008.98 1008.59 1008.17
1006.05 1006.37 1006.71 1007.08 1007.49 1007.92 1008.38 1008.84 1009.27 1009.67 1010.01 1010.29 1010.49 1010.62 1010.69 1010.70 1010.68 1010.61 1010.51 1010.37 1010.19 1009.97 1009.71 1009.41 1009.08 1008.76 1008.47 1008.23 1008.08 1008.03 1008.08 1008.24 1008.47 1008.73 1009.00 1009.22 1009.36 1009.38 1009.28 1009.04 1008.71 1008.29 1007.85
1005.83 1006.22 1006.63 1007.07 1007.52 1007.99 1008.46 1008.92 1009.34 1009.72 1010.04 1010.30 1010.49 1010.62 1010.70 1010.73 1010.72 1010.66 1010.56 1010.40 1010.18 1009.91 1009.57 1009.19 1008.79 1008.39 1008.03 1007.74 1007.56 1007.50 1007.57 1007.75 1008.02 1008.34 1008.65 1008.92 1009.09 1009.14 1009.04 1008.82 1008.47 1008.05 1007.60
1005.66 1006.13 1006.61 1007.11 1007.62 1008.12 1008.60 1009.05 1009.46 1009.82 1010.12 1010.37 1010.56 1010.71 1010.81 1010.86 1010.87 1010.83 1010.73 1010.57 1010.32 1010.00 1009.62 1009.17 1008.70 1008.24 1007.82 1007.49 1007.28 1007.20 1007.26 1007.45 1007.73 1008.07 1008.40 1008.68 1008.87 1008.93 1008.84 1008.61 1008.27 1007.84 1007.38
1005.45 1006.00 1006.56 1007.13 1007.69 1008.22 1008.72 1009.18 1009.58 1009.93 1010.23 1010.47 1010.67 1010.83 1010.96 1011.04 1011.09 1011.07 1010.99 1010.83 1010.59 1010.25 1009.83 1009.35 1008.83 1008.33 1007.87 1007.50 1007.26 1007.15 1007.20 1007.37 1007.64 1007.96 1008.28 1008.55 1008.72 1008.77 1008.68 1008.44 1008.10 1007.68 1007.22
1005.13 1005.76 1006.40 1007.04 1007.66 1008.24 1008.77 1009.24 1009.65 1010.00 1010.30 1010.55 1010.77 1010.96 1011.12 1011.25 1011.33 1011.36 1011.31 1011.17 1010.94 1010.61 1010.19 1009.70 1009.17 1008.65 1008.17 1007.78 1007.51 1007.38 1007.39 1007.52 1007.75 1008.02 1008.30 1008.53 1008.67 1008.70 1008.59 1008.35 1008.01 1007.59 1007.14
Thickness
5722 5722 5720 5717 5713 5709 5705 5701 5697 5694 5690 5686 5682 5679 5675 5673 5670 5668 5665 5663 5661 5661 5660 5661 5662 5665 5668 5671 5675 5679 5682 5686 5690 5693 5696 5702 5708 5712 5716 5721 5724 5727 5730
5720 5719 5717 5715 5712 5709 5705 5701 5697 5694 5691 5687 5683 5678 5675 5672 5669 5666 5664 5662 5660 5659 5659 5658 5659 5661 5664 5667 5670 5674 5676 5680 5685 5686 5687 5690 5697 5705 5711 5715 5719 5723 5726
5720 5718 5716 5714 5711 5708 5705 5702 5698 5695 5692 5688 5683 5679 5675 5672 5668 5665 5663 5661 5660 5658 5657 5657 5657 5658 5660 5662 5665 5669 5671 5673 5678 5682 5682 5683 5685 5693 5702 5708 5713 5717 5720
5722 5719 5716 5714 5712 5710 5707 5703 5700 5696 5693 5689 5684 5679 5674 5669 5667 5664 5662 5661 5660 5658 5657 5656 5656 5656 5657 5659 5661 5664 5666 5668 5670 5675 5679 5681 5684 5685 5689 5698 5704 5710 5714
5724 5721 5719 5717 5714 5711 5707 5704 5700 5697 5693 5689 5685 5680 5675 5671 5668 5665 5663 5661 5660 5658 5657 5656 5655 5655 5655 5656 5658 5660 5662 5664 5665 5668 5671 5675 5678 5681 5682 5685 5693 5700 5707
5725 5723 5720 5718 5714 5711 5708 5704 5700 5697 5694 5690 5686 5681 5677 5673 5669 5666 5663 5660 5659 5658 5656 5655 5654 5653 5653 5654 5655 5656 5658 5659 5661 5663 5666 5668 5671 5674 5676 5679 5684 5690 5698
5725 5722 5719 5716 5713 5711 5708 5705 5701 5698 5695 5691 5687 5683 5679 5674 5670 5667 5663 5660 5657 5656 5655 5654 5653 5652 5651 5652 5652 5653 5654 5655 5657 5659 5661 5664 5667 5670 5672 5674 5677 5682 5689
5725 5723 5721 5718 5715 5712 5709 5706 5702 5699 5696 5692 5688 5684 5680 5676 5672 5668 5665 5661 5658 5656 5655 5654 5652 5651 5650 5650 5650 5650 5650 5652 5653 5655 5656 5659 5662 5665 5668 5670 5672 5674 5679
5727 5725 5723 5719 5716 5713 5711 5708 5704 5700 5697 5694 5690 5686 5682 5678 5674 5670 5667 5663 5660 5658 5656 5654 5652 5650 5649 5648 5648 5647 5648 5648 5649 5650 5652 5654 5657 5660 5663 5666 5668 5669 5670
5728 5726 5724 5721 5718 5716 5713 5709 5706 5702 5699 5695 5691 5688 5683 5679 5676 5672 5668 5665 5662 5659 5657 5654 5652 5650 5649 5648 5647 5646 5646 5645 5646 5647 5648 5650 5652 5655 5658 5661 5663 5666 5667
5729 5728 5725 5723 5720 5717 5713 5710 5707 5703 5700 5696 5692 5688 5685 5681 5677 5673 5670 5666 5663 5660 5658 5655 5653 5651 5649 5647 5646 5645 5644 5643 5643 5643 5644 5646 5648 5650 5652 5655 5657 5660 5662
5732 5730 5727 5723 5720 5717 5714 5711 5708 5705 5702 5698 5693 5689 5685 5681 5677 5674 5671 5668 5664 5661 5659 5656 5653 5651 5649 5647 5645 5643 5642 5641 5640 5640 5640 5641 5644 5645 5646 5649 5651 5653 5656
5732 5729 5726 5722 5720 5717 5715 5712 5709 5706 5703 5698 5694 5690 5686 5682 5678 5675 5672 5668 5665 5662 5659 5656 5654 5651 5649 5647 5645 5643 5641 5639 5638 5638 5637 5638 5638 5640 5642 5644 5645 5647 5650
5732 5729 5725 5723 5721 5719 5716 5713 5710 5707 5703 5699 5694 5690 5687 5683 5679 5676 5672 5669 5666 5662 5659 5657 5654 5652 5650 5648 5645 5643 5640 5638 5637 5637 5636 5636 5636 5636 5638 5639 5640 5642 5643
5732 5730 5727 5725 5722 5719 5716 5714 5711 5708 5704 5699 5694 5691 5688 5684 5680 5676 5673 5670 5666 5663 5660 5657 5654 5652 5650 5649 5646 5643 5641 5638 5637 5636 5635 5635 5636 5637 5637 5637 5637 5637 5637
5734 5733 5730 5727 5723 5721 5718 5715 5712 5708 5704 5699 5696 5693 5688 5684 5681 5677 5673 5670 5666 5663 5660 5657 5654 5652 5652 5651 5649 5646 5642 5639 5636 5635 5634 5634 5635 5635 5635 5636 5636 5635 5634
5736 5735 5732 5730 5727 5724 5721 5716 5714 5709 5704 5700 5697 5693 5689 5685 5681 5678 5673 5670 5667 5663 5660 5658 5655 5653 5652 5651 5650 5648 5643 5640 5637 5635 5634 5634 5634 5633 5631 5632 5632 5632 5632
5738 5737 5735 5732 5730 5726 5722 5718 5713 5708 5704 5700 5696 5693 5689 5685 5681 5677 5673 5670 5667 5663 5660 5658 5656 5653 5653 5653 5651 5648 5644 5641 5638 5636 5634 5632 5632 5631 5630 5629 5629 5629 5630
5742 5740 5738 5734 5730 5726 5722 5716 5711 5706 5702 5699 5696 5693 5689 5685 5681 5677 5674 5671 5667 5664 5661 5659 5656 5654 5654 5653 5651 5649 5644 5640 5638 5637 5634 5632 5631 5631 5631 5628 5627 5628 5629
5742 5739 5736 5732 5728 5724 5720 5714 5709 5704 5701 5700 5697 5693 5689 5685 5681 5678 5674 5671 5667 5664 5662 5659 5657 5654 5653 5653 5652 5649 5644 5640 5638 5636 5634 5633 5631 5631 5630 5627 5626 5626 5627
5739 5736 5732 5728 5725 5722 5717 5711 5706 5703 5702 5699 5695 5691 5688 5684 5680 5676 5673 5669 5666 5663 5660 5658 5657 5655 5653 5653 5651 5649 5644 5640 5638 5635 5633 5632 5631 5630 5629 5628 5626 5626 5627
5734 5730 5726 5723 5720 5717 5713 5708 5704 5703 5699 5695 5691 5688 5684 5682 5679 5674 5670 5667 5664 5660 5658 5656 5655 5654 5653 5652 5650 5649 5646 5642 5637 5635 5633 5631 5630 5629 5628 5627 5627 5626 5626
5728 5725 5721 5716 5713 5711 5709 5705 5702 5698 5695 5690 5686 5683 5680 5676 5673 5669 5666 5663 5659 5656 5654 5651 5650 5650 5650 5649 5649 5647 5645 5642 5638 5635 5632 5630 5628 5627 5625 5625 5625 5624 5623
5722 5718 5715 5710 5706 5704 5703 5701 5697 5694 5690 5685 5681 5677 5673 5670 5667 5664 5661 5657 5653 5650 5648 5646 5645 5644 5644 5644 5644 5643 5641 5639 5636 5632 5629 5627 5624 5622 5621 5621 5621 5620 5619
5716 5713 5710 5706 5701 5698 5696 5694 5691 5688 5683 5679 5674 5670 5667 5663 5660 5657 5654 5651 5648 5645 5642 5640 5638 5638 5638 5639 5639 5638 5636 5633 5630 5626 5623 5620 5618 5616 5615 5615 5615 5615 5615
5710 5706 5702 5699 5695 5691 5689 5686 5684 5682 5677 5671 5667 5663 5659 5656 5652 5649 5646 5644 5642 5640 5637 5635 5634 5632 5632 5633 5634 5633 5630 5628 5625 5620 5615 5613 5611 5609 5608 5608 5608 5609 5609